Toluca Jose Maria, Mexico

4:43 PM CDT on May 22, 2017 (GMT -0500)
Lic Adolfo Lopez Mateos International

Weather History for MMTO - November, 2012

Change the Weather History Date:

Tuesday, November 20, 2012

  Actual Average Record
Temperature  
Mean Temperature 48 °F -  
Max Temperature 69 °F 67 °F 75 °F (2003)
Min Temperature 28 °F 35 °F 24 °F (2008)
Degree Days  
Heating Degree Days 16    
Moisture  
Dew Point 23 °F    
Average Humidity 45    
Maximum Humidity 86    
Minimum Humidity 12    
Precipitation  
Precipitation 0.00 in - - ()
Sea Level Pressure  
Sea Level Pressure 30.26 in    
Wind  
Wind Speed 4 mph ()    
Max Wind Speed 15 mph    
Max Gust Speed -    
Visibility 8.5 miles    
Events      
Averages and records for this station are not official NWS values.
T = Trace of Precipitation, MM = Missing Value Source: Averaged Metar Reports

Daily Weather History Graph

Daily Weather History Graph

Search for Another Location

Airport or City:

Trip Planner

Search our weather history database for the weather conditions in past years. The results will help you decide how hot, cold, wet, or windy it might be!

Date:

Astronomy

Nov. 20, 2012 Rise Set
Actual Time 6:49 AM CST 5:58 PM CST
Civil Twilight 6:26 AM CST 6:21 PM CST
Nautical Twilight 5:59 AM CST 6:48 PM CST
Astronomical Twilight 5:32 AM CST 7:15 PM CST
Moon 12:52 PM CST (11/20) 12:05 AM CST (11/20)
Length of Visible Light 11h 55m
Length of Day
11h 09m
First Quarter, 51% of the Moon is Illuminated
Nov 20
First Quarter
Nov 28
Full
Dec 6
Last Quarter
Dec 13
New
Dec 19
First Quarter

Hourly Weather History & Observations

Time (CST) Temp. Windchill Dew Point Humidity Pressure Visibility Wind Dir Wind Speed Gust Speed Precip Events Conditions
12:45 AM 37.4 °F 34.9 °F 28.4 °F 70% 30.42 in 8.0 mi North 3.5 mph - N/A   Clear
1:45 AM 37.4 °F - 28.4 °F 70% 30.41 in 8.0 mi Calm Calm - N/A   Clear
2:45 AM 33.8 °F - 28.4 °F 81% 29.97 in 8.0 mi Calm Calm - N/A   Clear
3:45 AM 32.0 °F - 26.6 °F 80% 30.41 in 8.0 mi Calm Calm - N/A   Clear
4:45 AM 30.2 °F - 26.6 °F 86% 30.42 in 8.0 mi Calm Calm - N/A   Clear
5:45 AM 28.4 °F - 24.8 °F 86% 30.03 in 8.0 mi Calm Calm - N/A   Clear
6:45 AM 28.4 °F - 23.0 °F 80% 30.44 in 8.0 mi Calm Calm - N/A   Clear
7:45 AM 32.0 °F - 26.6 °F 80% 30.44 in 8.0 mi Calm Calm - N/A   Clear
8:45 AM 42.8 °F - 26.6 °F 53% 30.03 in 8.0 mi Calm Calm - N/A   Clear
9:45 AM 55.4 °F - 28.4 °F 36% 30.44 in 8.0 mi West 4.6 mph - N/A   Clear
10:45 AM 62.6 °F - 21.2 °F 20% 30.43 in 8.0 mi East 3.5 mph - N/A   Scattered Clouds
11:45 AM 68.0 °F - 12.2 °F 12% 29.89 in 8.0 mi NE 12.7 mph - N/A   Mostly Cloudy
12:45 PM 69.8 °F - 14.0 °F 12% 30.38 in 8.0 mi ENE 15.0 mph - N/A   Mostly Cloudy
1:45 PM 69.8 °F - 15.8 °F 13% 30.34 in 8.0 mi NE 12.7 mph - N/A   Mostly Cloudy
2:45 PM 69.8 °F - 17.6 °F 14% 29.88 in 8.0 mi East 9.2 mph - N/A   Mostly Cloudy
3:45 PM 68.0 °F - 15.8 °F 13% 30.32 in 10.0 mi NE 15.0 mph - N/A   Scattered Clouds
4:45 PM 68.0 °F - 17.6 °F 15% 30.31 in 10.0 mi ENE 10.4 mph - N/A   Scattered Clouds
5:45 PM 60.8 °F - 21.2 °F 22% 30.01 in 10.0 mi NE 12.7 mph - N/A   Clear
6:45 PM 55.4 °F - 23.0 °F 29% 30.34 in 10.0 mi NE 12.7 mph - N/A   Clear
7:45 PM 51.8 °F - 23.0 °F 33% 30.38 in 10.0 mi ENE 5.8 mph - N/A   Clear
8:45 PM 48.2 °F - 21.2 °F 34% 30.06 in 10.0 mi SE 6.9 mph - N/A   Clear
9:45 PM 44.6 °F 40.7 °F 23.0 °F 43% 30.43 in 9.0 mi ENE 6.9 mph - N/A   Partly Cloudy
10:45 PM 42.8 °F - 24.8 °F 49% 30.44 in 8.0 mi Calm Calm - N/A   Partly Cloudy
11:45 PM 41.0 °F - 26.6 °F 57% 29.93 in 7.0 mi Calm Calm - N/A   Clear